• Processing (Info)

  • MPEC 2015-X134: 2015 XX169

    The following Minor Planet Electronic Circular may be linked-to from your own Web pages, but must not otherwise be redistributed electronically.

    A form allowing access to any MPEC is at the bottom of this page.


    Read MPEC 2015-X133 Read MPEC 2015-X135


    M.P.E.C. 2015-X134                               Issued 2015 Dec. 10, 23:09 UT
    
         The Minor Planet Electronic Circulars contain information on unusual
             minor planets and routine data on comets.  They are published
        on behalf of Division F of the International Astronomical Union by the
              Minor Planet Center, Smithsonian Astrophysical Observatory,
                              Cambridge, MA 02138, U.S.A.
    
                 Prepared using the Tamkin Foundation Computer Network
    
                                  MPC@CFA.HARVARD.EDU
                URL https://www.minorplanetcenter.net/    ISSN 1523-6714
    
                                      2015 XX169
    
    Observations:
         K15XG9X* C2015 12 09.29469 03 41 00.34 +22 57 19.4          20.9 VqEX134G96
         K15XG9X  C2015 12 09.30055 03 40 55.95 +22 55 35.8          20.5 VqEX134G96
         K15XG9X  C2015 12 09.30646 03 40 51.60 +22 53 52.0          20.8 VqEX134G96
         K15XG9X  C2015 12 09.31236 03 40 47.22 +22 52 07.1          20.8 VqEX134G96
         K15XG9X  C2015 12 09.33901 03 40 27.67 +22 44 15.7          19.7 VqEX134G96
         K15XG9X  C2015 12 09.34194 03 40 25.62 +22 43 23.0          20.5 VqEX134G96
         K15XG9X  C2015 12 09.34487 03 40 23.53 +22 42 30.6          20.9 VqEX134G96
         K15XG9X  C2015 12 09.34780 03 40 21.41 +22 41 38.5          20.7 VqEX134G96
         K15XG9X  C2015 12 09.35018903 40 18.94 +22 40 43.7          20.5 VtEX134H01
         K15XG9X  C2015 12 09.35911803 40 12.57 +22 38 03.7          20.9 VtEX134H01
         K15XG9X  C2015 12 09.36574103 40 07.84 +22 36 04.4          21.0 VtEX134H01
         K15XG9X  C2015 12 09.37165503 40 03.65 +22 34 17.9          20.2 VtEX134H01
         K15XG9X  C2015 12 09.81830 03 35 36.22 +20 17 01.8          20.5 VSEX134033
         K15XG9X  C2015 12 09.81997 03 35 34.99 +20 16 30.4          20.7 VSEX134033
         K15XG9X  C2015 12 09.82164 03 35 33.77 +20 15 58.7          20.3 VSEX134033
         K15XG9X  C2015 12 09.82331 03 35 32.52 +20 15 27.1          20.6 VSEX134033
         K15XG9X  C2015 12 09.89596 03 34 38.27 +19 52 20.6          20.9 VSEX134033
         K15XG9X  C2015 12 09.89764 03 34 36.95 +19 51 48.4          21.5 VSEX134033
         K15XG9X  C2015 12 09.89931 03 34 35.70 +19 51 16.2          20.7 VSEX134033
         K15XG9X  C2015 12 09.90098 03 34 34.41 +19 50 43.8          21.0 VSEX134033
         K15XG9X  C2015 12 09.90273 03 34 33.12 +19 50 10.8          21.1 VSEX134033
         K15XG9X  C2015 12 09.99347 03 33 24.91 +19 20 31.1          21.3 VSEX134033
         K15XG9X  C2015 12 09.99515 03 33 23.66 +19 19 57.5          21.2 VSEX134033
         K15XG9X  C2015 12 09.99682 03 33 22.41 +19 19 24.5          21.0 VSEX134033
         K15XG9X  C2015 12 09.99850 03 33 21.14 +19 18 50.6          20.7 VSEX134033
         K15XG9X  C2015 12 10.10450903 32 31.29 +18 45 03.1          20.8 VtEX134H01
         K15XG9X  C2015 12 10.10875703 32 28.07 +18 43 39.2          20.4 VtEX134H01
         K15XG9X KC2015 12 10.11594403 32 22.55 +18 41 17.7          20.6 VtEX134H01
         K15XG9X  C2015 12 10.12413303 32 16.25 +18 38 36.3          20.5 VtEX134H01
    
    Observer details:
    033 Karl Schwarzschild Observatory, Tautenburg.  Observers B. Stecklum,
        C. Hoegner.  Measurer B. Stecklum.  1.34-m f/3 Schmidt + CCD.
    G96 Mt. Lemmon Survey.  Observer R. G. Matheny.  Measurers E. J. Christensen,
        D. C. Fuls, A. R. Gibbs, A. D. Grauer, J. A. Johnson, R. A. Kowalski,
        S. M. Larson, G. J. Leonard, R. G. Matheny, R. L. Seaman, F. C. Shelly.
        1.5-m reflector + CCD.
    H01 Magdalena Ridge Observatory, Socorro.  Observers W. H. Ryan, E. V. Ryan.
        Measurer W. H. Ryan.  2.4-m f/8.9 reflector + CCD.
    
    Orbital elements:
    2015 XX169                                               Earth MOID = 0.0150 AU
    Epoch 2016 Jan. 13.0 TT = JDT 2457400.5                 MPC
    M 310.55380              (2000.0)            P               Q
    n   0.98645572     Peri.  284.01011     -0.99140736     +0.01113448
    a   0.9994268      Node   256.74946     +0.03767820     -0.92983750
    e   0.1834596      Incl.    7.69506     -0.12526693     -0.36780191
    P   1.00           H   27.5           G   0.15           U   7
    Residuals in seconds of arc
    151209 G96  0.9+  0.7+    151209 H01  0.2-  0.2-    151209 033  0.1-  0.4+
    151209 G96  0.0   0.1-    151209 H01  0.1-  0.1-    151209 033  0.2+  0.5+
    151209 G96  0.1+  0.1+    151209 033  0.0   0.2+    151209 033  0.2+  0.3+
    151209 G96  0.4-  0.8-    151209 033  0.0   0.3+    151209 033  0.1+  0.5+
    151209 G96  1.1-  0.5+    151209 033  0.2+  0.0     151209 033  0.2-  0.0
    151209 G96  0.0   0.1+    151209 033  0.1-  0.1-    151210 H01  0.2-  0.2+
    151209 G96  0.5+  0.0     151209 033  0.6+  0.6-    151210 H01  0.1+  0.2-
    151209 G96  0.6+  0.2+    151209 033  0.2-  0.4-    151210 H01  0.1-  0.3-
    151209 H01  0.2-  0.3-    151209 033  0.0   0.3-    151210 H01  0.1+  0.1-
    151209 H01  0.0   0.1-    151209 033  0.5-  0.4-
    
    Ephemeris:
    2015 XX169               a,e,i = 1.00, 0.18, 8                   q = 0.8161
    Date    TT    R. A. (2000) Decl.     Delta      r     Elong.  Phase     V
    2015 11 10    05 20 05.0 +50 59 19   0.1395  1.0948   135.8    39.1    25.0
    ...
    2015 11 25    05 02 44.8 +48 19 52   0.07808 1.0553   149.6    28.3    23.3
    ...
    2015 12 03    04 30 36.8 +41 02 24   0.04864 1.0320   160.9    18.2    21.9
    ...
    2015 12 09    03 44 08.5 +24 21 11   0.03000 1.0137   162.4    17.1    20.8
    2015 12 10    03 33 29.0 +19 21 36   0.02755 1.0106   158.4    21.1    20.8
    2015 12 11    03 21 46.5 +13 25 12   0.02542 1.0075   152.8    26.6    20.7
    ...
    2015 12 17    01 45 32.8 -35 00 05   0.02330 0.9885   100.1    78.5    22.1
    ...
    2015 12 25    22 52 01.2 -63 25 13   0.04326 0.9629    60.3   117.4    25.3
    ...
    2016 01 09    19 59 26.9 -63 59 46   0.09495 0.9154    42.3   133.7    28.3
    
    A. U. Tomatic                (C) Copyright 2015 MPC           M.P.E.C. 2015-X134
    

    Read MPEC 2015-X133 Read MPEC 2015-X135


    MPEC number:

    Enter an MPEC number in one of the following forms:

    • 1997-B01 (the full form)
    • J97B01 (the packed version of the full form)
    • B01 (the abbreviated form)